map of EGC home
Great Circle Mapper logo
EGC - Airport
Location
City:  Bergerac, France
Name:Roumaniere
ICAO / IATA:LFBE / EGC

Details
Type:Airport (Aerodrome, Airfield)
Use:Public/Civil
Latitude:4449'28"N (44.824431)
Longitude:031'14"E (0.520525)
Elevation:171 ft (52 m)
Variation:0.03W (WMM2015 magnetic declination)
0.13 annual change
Runways:2
Longest:7234 × 148 ft (2205 × 45 m)

Time
Time Zone:UTC+1 (DST+2)
Local Time:

Weather
METAR:LFBE 220930Z AUTO 32008KT 280V350 9999 NSC 18/05 Q1027
TAF:LFBE 220500Z 2206/2306 VRB02KT 3000 BR NSC
BECMG 2206/2208 CAVOK
BECMG 2210/2212 34012KT
BECMG 2219/2221 VRB02KT
BECMG 2304/2306 SCT005 BKN045

Related Locations
Nearby:
Farthest:CHT: 12273 mi / 19752 km
Waitangi [Tuuta], Chatham Islands, NZ

Find:

   beyond  
but within

Other Information
Maps:
NOTAMs:
Links:
Sources:

  
flag of France   

Sectional Chart

Flight Planning
at skyvector.com

Satellite Image

Google Maps Satellite View

 

Copyright © 2004-2015 Karl L. Swartz. All rights reserved.
The Great Circle Mapper name and logo are trademarks of the Great Circle Mapper.
All other trademarks mentioned herein belong to their respective owners.
Please see credits for attibutions and further copyright information.

  Follow gcmap on Facebook Follow gcmap on Twitter Follow gcmap on Google+

hCard Microformat

Geo Microformat